Location: Bernadets
(43.3537°N, 0.3167°E)
Time: 02:06:15
(UTC+00:00)

Cosmos 371 Rocket - Pass Details

Date: 24 October 2021
Orbit: 683 x 699 km, 74.0° (Epoch: 29 November)

Event Time Altitude Azimuth Distance (km) Brightness Sun altitude
Rises 18:04:12 0° 204° (SSW) 3,054 7.0 -12.1°
Reaches altitude 10° 18:06:30 10° 206° (SSW) 2,144 6.2 -12.5°
Maximum altitude 18:11:20 73° 292° (WNW) 731 3.5 -13.4°
Drops below altitude 10° 18:16:13 10° 17° (NNE) 2,168 5.6 -14.2°
Sets 18:18:34 0° 19° (NNE) 3,091 6.4 -14.7°
